Regional Weather Roundup
Issued by NWS

Home | Current Version | Previous Version | Text Only | Print | Product List | Glossary On
Versions: 1 2 3 4 5 6 7 8 9 10 11 12 13 14 15 16 17 18 19 20 21 22 23 24 25 26 27 28 29 30 31 32 33 34 35 36 37 38 39 40 41 42 43 44 45 46 47 48 49 50
000
ASUS46 KPQR 231910
RWROR

OREGON REGIONAL WEATHER ROUNDUP
NATIONAL WEATHER SERVICE PORTLAND OR
1200 PM PDT THU MAR 23 2017

NOTE: "FAIR" INDICATES FEW OR NO CLOUDS BELOW 12,000 FEET WITH
NO SIGNIFICANT WEATHER AND/OR OBSTRUCTIONS TO VISIBILITY.

ORZ001>013-232000-
NORTHWEST OREGON


CITY           SKY/WX    TMP DP  RH WIND       PRES   REMARKS
ASTORIA        CLOUDY    50  38  63 SE14G21   30.00F
NEWPORT        CLOUDY    50  37  62 SE6       30.06S
PORTLAND       PTSUNNY   52  36  54 E13       30.07F
VANCOUVER WA   PTSUNNY   52  39  61 E10       30.07F
SCAPPOOSE      PTSUNNY   51  38  60 SE10      30.06F
HILLSBORO      CLOUDY    51  38  60 SE9       30.05F
AURORA         PTSUNNY   53  36  52 SE8       30.06F
MCMINNVILLE    PTSUNNY   52  38  58 S12       30.07F
SALEM          PTSUNNY   52  37  56 S10       30.04F
CORVALLIS        N/A     52  41  66 S10       30.06F
EUGENE         PTSUNNY   54  41  61 S12       30.04F
$$

ORZ021-028-232000-
SOUTHWEST OREGON


CITY           SKY/WX    TMP DP  RH WIND       PRES   REMARKS
NORTH BEND     CLOUDY    54  39  58 S9        30.04F
BROOKINGS      CLOUDY    51  40  65 S13G22    30.11F
ROSEBURG       SUNNY     56  38  50 S7        30.05F
SEXTON SUMMIT  PTSUNNY   41  36  82 SE9       30.02F
MEDFORD        MOSUNNY   51  40  65 VRB3      30.08F
$$

ORZ014>016-041-232000-
COLUMBIA GORGE


CITY           SKY/WX    TMP DP  RH WIND       PRES   REMARKS
TROUTDALE      PTSUNNY   52  38  58 E9        30.08F
THE DALLES     PTSUNNY   52  36  54 CALM      30.10F
$$

ORZ029>031-041-044-049-050-061>064-502-503-505>511-232000-
EASTERN OREGON


CITY           SKY/WX    TMP DP  RH WIND       PRES   REMARKS
REDMOND        MOSUNNY   49  23  36 MISG      30.02F
BEND           MOSUNNY   48  18  29 SW6G14    30.02F
PRINEVILLE     MOSUNNY   46  23  39 VRB6      30.03F
KLAMATH FALLS  PTSUNNY   42  33  70 S12       30.09S
LAKEVIEW       MOSUNNY   43  30  61 S15       30.10F
HERMISTON      SUNNY     52  33  48 W7        30.10F
PENDLETON      SUNNY     48  31  51 SW7       30.09F
JOHN DAY       SUNNY     46  32  58 CALM      30.06F
MEACHAM        SUNNY     42  24  49 CALM      30.04F
LA GRANDE      SUNNY     46  30  53 N7        30.07F
BAKER CITY     SUNNY     43  27  53 W7        30.06F
BURNS          SUNNY     43  23  45 SW12      30.07S
ROME             N/A     47  29  49 VRB3      30.06S
ONTARIO        SUNNY     53  30  41 NW13      30.07S
$$



USA.gov is the U.S. government's official web portal to all federal, state and local government web resources and services.